Total_Precipitation_Accumulation
0.01 0.01 0.02 0.04 0.17 0.41 0.68 0.61 0.68 0.68 0.69 0.61 0.62 0.71 0.79 0.91 1.14 1.96 1.30 0.67 0.48 0.51 0.48 0.54 0.54 0.56 0.60 0.63 0.70 0.82 0.86 0.78 0.80 0.91 1.15 1.18 1.23 1.36 1.40 1.45 1.55 1.56 1.54 1.41 1.37 1.41 1.42 1.45 1.41
0.02 0.02 0.04 0.07 0.26 0.64 0.70 0.62 0.68 0.68 0.59 0.50 0.57 0.69 0.68 0.66 0.61 0.64 0.76 0.62 0.46 0.43 0.49 0.49 0.51 0.58 0.58 0.61 0.64 0.78 0.87 0.84 0.83 0.87 1.08 1.19 1.27 1.33 1.34 1.42 1.57 1.74 1.76 1.70 1.55 1.52 1.53 1.51 1.41
0.02 0.04 0.07 0.09 0.29 0.58 0.69 0.57 0.59 0.57 0.50 0.52 0.59 0.67 0.75 0.79 0.71 0.65 0.62 0.43 0.49 0.44 0.52 0.59 0.57 0.61 0.57 0.60 0.69 0.81 0.94 0.96 0.95 0.99 1.11 1.34 1.39 1.37 1.40 1.52 1.50 1.67 1.81 1.86 1.75 1.77 1.71 1.62 1.44
0.03 0.05 0.08 0.15 0.29 0.42 0.52 0.51 0.61 0.69 0.61 0.59 0.58 0.75 0.85 0.75 0.72 0.67 0.60 0.51 0.48 0.49 0.56 0.55 0.57 0.60 0.60 0.66 0.76 0.87 1.09 1.10 1.06 1.11 1.21 1.40 1.44 1.41 1.46 1.63 1.56 1.56 1.62 1.72 1.80 1.86 1.82 1.72 1.45
0.05 0.07 0.11 0.21 0.30 0.34 0.46 0.54 0.70 0.80 0.66 0.64 0.68 0.92 1.04 0.95 0.87 0.83 0.74 0.67 0.55 0.54 0.63 0.59 0.63 0.66 0.68 0.71 0.79 0.97 1.10 1.13 1.13 1.21 1.32 1.49 1.48 1.45 1.55 1.71 1.74 1.76 1.76 1.80 1.81 1.77 1.72 1.75 1.63
0.06 0.09 0.17 0.30 0.34 0.35 0.41 0.53 0.59 0.70 0.66 0.65 0.75 1.15 1.50 1.51 1.42 1.29 1.14 0.88 0.69 0.62 0.72 0.76 0.78 0.79 0.83 0.83 0.82 0.97 1.09 1.11 1.23 1.36 1.42 1.54 1.61 1.61 1.67 1.80 1.91 1.92 1.88 1.80 1.70 1.59 1.52 1.68 1.69
0.08 0.15 0.22 0.28 0.37 0.40 0.43 0.57 0.66 0.72 0.73 0.78 0.95 1.20 1.53 1.71 1.80 1.67 1.50 1.21 1.13 1.05 1.11 1.10 0.99 0.92 0.94 0.96 0.94 0.99 1.05 1.06 1.19 1.37 1.38 1.41 1.59 1.73 1.72 1.76 1.88 1.93 1.82 1.70 1.56 1.54 1.43 1.57 1.66
0.08 0.12 0.19 0.25 0.37 0.45 0.48 0.66 0.67 0.67 0.78 0.89 1.10 1.37 1.76 1.70 1.55 1.71 1.76 1.69 1.62 1.70 1.69 1.32 1.13 1.09 1.11 1.09 1.10 1.14 1.12 1.09 1.15 1.28 1.42 1.51 1.61 1.69 1.81 1.79 1.85 1.92 1.78 1.68 1.60 1.62 1.56 1.61 1.75
0.08 0.12 0.17 0.28 0.39 0.45 0.42 0.61 0.60 0.52 0.61 0.79 1.06 1.20 1.38 1.34 1.37 1.71 1.92 2.19 2.31 2.13 1.97 1.68 1.40 1.37 1.33 1.19 1.10 1.25 1.25 1.20 1.23 1.32 1.41 1.52 1.71 1.94 2.01 1.82 1.92 1.90 1.86 1.80 1.81 1.80 1.76 1.83 1.90
0.06 0.09 0.16 0.23 0.25 0.34 0.43 0.59 0.54 0.59 0.67 0.81 0.92 1.17 1.37 1.37 1.66 1.86 2.04 2.51 2.44 2.32 2.12 2.03 1.90 1.71 1.66 1.37 1.50 1.71 1.55 1.50 1.42 1.57 1.60 1.78 2.12 2.30 2.14 2.34 2.40 2.33 2.24 2.17 2.19 2.15 2.02 1.93 1.81
0.06 0.08 0.14 0.20 0.19 0.27 0.44 0.55 0.53 0.67 0.90 1.18 1.25 1.27 1.34 1.43 1.74 2.00 2.21 2.56 2.69 2.48 2.18 2.19 2.17 2.17 2.21 2.18 1.99 1.99 1.98 2.01 1.92 2.08 2.04 2.24 2.41 2.41 2.54 2.77 2.74 2.63 2.48 2.37 2.45 2.33 1.97 1.93 2.05
0.10 0.11 0.16 0.18 0.21 0.32 0.49 0.59 0.80 0.90 1.06 1.31 1.39 1.37 1.55 1.68 1.82 1.96 2.19 2.56 2.84 2.76 2.60 2.71 2.54 2.51 2.62 2.80 2.69 2.28 2.18 2.18 2.10 2.36 2.35 2.53 2.75 2.83 3.05 3.13 2.94 2.95 2.90 2.91 2.88 2.80 2.46 2.36 2.32
0.11 0.15 0.18 0.17 0.25 0.38 0.54 0.62 0.76 0.81 0.72 1.00 1.26 1.46 1.71 1.69 1.85 2.00 2.33 2.90 3.18 3.15 3.03 3.19 3.17 3.14 3.15 3.35 3.34 2.73 2.60 2.76 3.00 3.07 2.86 2.87 2.92 3.05 3.39 3.39 3.27 3.23 3.32 3.26 3.14 2.96 2.96 2.95 2.76
0.12 0.14 0.17 0.19 0.23 0.32 0.47 0.51 0.65 0.88 0.83 0.98 1.19 1.52 1.77 1.94 2.21 2.54 2.84 3.29 3.57 3.62 3.45 3.43 3.46 3.61 3.51 3.50 3.50 3.46 3.21 3.28 3.47 3.50 3.45 3.39 3.43 3.55 3.78 3.81 3.66 3.46 3.55 3.54 3.47 3.30 3.35 3.35 3.30
0.13 0.14 0.19 0.26 0.30 0.32 0.37 0.59 0.76 0.95 1.06 1.22 1.36 1.54 1.87 2.12 2.37 2.70 3.19 3.50 3.52 3.50 3.43 3.54 3.54 3.79 3.92 3.91 3.73 3.77 3.80 3.88 4.03 4.01 3.84 3.73 3.79 4.13 4.23 4.29 4.00 3.75 3.79 4.02 4.05 3.94 3.88 3.60 3.50
0.16 0.21 0.26 0.31 0.32 0.38 0.39 0.74 0.94 0.82 0.96 1.33 1.54 1.58 1.78 1.99 2.32 2.69 3.11 3.39 3.49 3.81 3.85 3.85 3.83 3.98 4.27 4.31 4.17 4.14 4.10 4.41 4.48 4.42 4.30 4.05 3.99 4.19 4.37 4.39 4.24 4.11 4.08 4.36 4.53 4.48 4.41 4.20 4.10
0.24 0.30 0.33 0.36 0.33 0.40 0.47 0.78 0.98 0.95 0.97 1.24 1.68 1.89 1.87 2.09 2.47 2.84 3.18 3.50 3.67 3.81 4.04 4.04 4.15 4.38 4.43 4.54 4.45 4.55 4.70 4.66 4.58 4.50 4.52 4.43 4.39 4.56 4.67 4.56 4.58 4.65 4.73 4.70 4.44 4.61 4.48 4.48 4.41
0.28 0.31 0.36 0.40 0.39 0.41 0.53 0.75 0.96 1.08 1.25 1.37 1.65 1.96 2.09 2.08 2.32 2.65 3.09 3.54 3.75 3.84 3.86 4.01 4.12 4.35 4.55 4.74 4.75 4.81 4.94 5.02 5.14 5.22 5.19 4.97 4.97 4.96 5.29 5.25 5.15 5.17 5.13 4.95 4.85 4.89 4.63 4.50 4.43
0.25 0.34 0.40 0.43 0.41 0.49 0.59 0.71 0.96 1.16 1.39 1.46 1.55 1.82 2.03 2.21 2.35 2.69 3.06 3.40 3.91 4.01 3.91 3.99 4.19 4.43 4.58 4.88 4.99 5.27 5.58 5.78 5.95 5.91 5.68 5.70 5.67 5.80 5.90 5.72 5.57 5.43 5.39 5.31 5.28 5.14 4.90 4.62 4.59
0.26 0.42 0.46 0.44 0.41 0.51 0.70 0.87 1.07 1.28 1.43 1.41 1.54 1.73 1.94 2.34 2.66 2.86 3.04 3.48 3.99 4.23 4.28 4.33 4.53 4.87 5.09 5.38 5.84 6.13 6.42 6.68 6.87 6.91 6.45 6.17 6.04 5.95 5.86 5.99 5.93 5.78 5.68 5.52 5.33 5.23 5.03 4.65 4.56
0.21 0.30 0.40 0.45 0.49 0.58 0.81 1.19 1.40 1.55 1.61 1.73 1.95 2.12 2.22 2.46 2.84 2.92 3.00 3.41 3.77 4.03 4.20 4.42 4.68 5.15 5.71 6.10 6.52 6.85 7.08 7.12 6.92 6.61 6.54 6.35 6.18 6.04 5.84 5.75 5.60 5.53 5.43 5.38 5.23 5.01 4.84 4.61 4.46
0.20 0.23 0.33 0.40 0.56 0.70 0.85 1.56 1.94 1.95 1.93 2.14 2.34 2.35 2.42 2.53 2.73 2.87 3.01 3.31 3.66 3.97 4.15 4.52 5.06 5.79 6.33 6.74 7.27 7.79 7.90 7.62 7.26 6.80 6.36 6.10 5.87 5.58 5.34 5.26 5.20 5.09 4.75 4.61 4.48 4.45 4.31 4.16 3.97
0.19 0.20 0.28 0.34 0.45 0.65 0.90 1.44 2.31 2.36 2.33 2.49 2.65 2.43 2.42 2.34 2.41 2.67 2.84 3.07 3.58 3.88 4.13 4.50 5.10 5.86 6.58 7.38 7.98 8.40 8.25 7.86 7.41 6.72 6.14 5.68 5.32 4.97 4.68 4.60 4.51 4.28 3.88 3.57 3.49 3.70 3.76 3.73 3.63
0.15 0.20 0.29 0.36 0.48 0.78 0.86 1.30 2.12 2.43 2.57 2.69 2.59 2.32 2.22 2.13 2.16 2.31 2.50 2.86 3.39 3.68 3.87 4.23 4.88 5.67 6.33 6.90 7.41 7.67 7.53 7.32 6.77 6.08 5.46 5.06 4.76 4.43 4.04 3.71 3.52 3.28 3.09 2.91 2.90 3.00 3.10 3.34 3.43
0.19 0.29 0.62 0.84 0.98 1.00 0.79 1.16 1.90 2.14 2.27 2.22 2.21 2.22 2.03 2.08 2.04 2.08 2.25 2.53 2.96 3.12 3.45 3.85 4.30 4.99 5.42 5.74 6.10 6.30 6.39 6.18 5.83 5.34 4.89 4.47 4.01 3.66 3.33 3.02 2.93 2.81 2.71 2.66 2.68 2.71 2.67 2.80 2.98
0.22 0.28 0.71 1.06 1.09 1.09 1.06 1.55 2.11 2.05 1.95 1.91 1.85 1.88 1.91 2.04 2.08 2.10 2.26 2.47 2.74 2.92 3.06 3.20 3.48 3.89 4.06 4.11 4.35 4.62 4.67 4.63 4.49 4.21 3.84 3.55 3.21 2.85 2.65 2.42 2.27 2.26 2.34 2.28 2.39 2.44 2.46 2.47 2.52
0.22 0.23 0.35 0.68 0.79 1.21 1.50 1.99 2.48 2.21 2.05 2.01 1.93 1.79 1.76 1.82 1.93 2.09 2.21 2.25 2.26 2.30 2.37 2.46 2.64 2.80 2.87 2.96 3.05 3.21 3.24 3.22 3.18 3.06 2.80 2.58 2.44 2.16 2.01 1.93 1.90 1.88 1.95 2.09 2.15 2.11 2.14 2.26 2.29
0.21 0.27 0.43 0.79 1.24 1.53 1.78 2.46 3.06 2.80 2.36 2.04 1.80 1.60 1.55 1.65 1.77 1.95 2.08 2.06 2.06 1.98 2.04 2.12 2.20 2.27 2.28 2.34 2.36 2.31 2.35 2.37 2.38 2.26 2.13 2.07 1.99 1.86 1.82 1.75 1.69 1.65 1.64 1.68 1.79 1.86 1.91 1.95 2.08
0.30 0.37 0.53 0.82 1.01 1.52 2.04 2.81 2.85 3.03 2.85 2.34 2.01 1.83 1.75 1.68 1.77 1.95 1.97 1.92 1.92 1.87 1.89 1.95 1.94 1.95 1.92 1.89 1.93 1.93 1.86 1.88 1.96 1.95 1.84 1.82 1.77 1.64 1.60 1.53 1.45 1.40 1.40 1.45 1.57 1.61 1.67 1.73 1.84
0.29 0.36 0.56 1.08 1.23 1.29 1.98 3.00 2.72 2.97 3.08 2.76 2.49 2.35 2.24 2.04 1.91 1.90 1.84 1.79 1.73 1.76 1.79 1.86 1.81 1.76 1.80 1.70 1.64 1.66 1.70 1.68 1.71 1.69 1.59 1.58 1.63 1.56 1.53 1.43 1.33 1.25 1.24 1.28 1.32 1.35 1.38 1.54 1.61